N0XUT Weather Reports


Display with metric or nautical units.
time (UTC)temp
F
wind
direction
speed
MPH
gust
MPH
rain 1hr
in
rain 24hr
in
rain mn
in
humidity
%
barometer
mb
20260507174459 61 268 7.0 18.0 0.00 0.00 0.00 38 1010.2
20260507173000 59 285 7.0 21.0 0.00 0.00 0.00 39 1010.5
20260507171500 60 261 6.0 18.0 0.00 0.00 0.00 39 1010.6
20260507164500 59 275 7.0 15.0 0.00 0.00 0.00 43 1011.0
20260507163000 58 266 7.0 17.0 0.00 0.00 0.00 45 1011.2
20260507161500 57 238 8.0 18.0 0.00 0.00 0.00 49 1011.2
20260507160000 56 231 7.0 20.0 0.00 0.00 0.00 49 1011.1
20260507154500 56 237 12.0 20.0 0.00 0.00 0.00 46 1011.3
20260507153000 56 244 9.0 20.0 0.00 0.00 0.00 48 1011.4
20260507151500 55 227 7.0 16.0 0.00 0.00 0.00 49 1011.5
20260507150000 54 239 2.0 6.0 0.00 0.00 0.00 49 1011.6
20260507144500 52 2 3.0 7.0 0.00 0.00 0.00 51 1011.6
20260507143000 52 257 3.0 6.0 0.00 0.00 0.00 51 1011.8
20260507140000 50 60 3.0 5.0 0.00 0.00 0.00 54 1012.4
20260507134500 47 38 2.0 6.0 0.00 0.00 0.00 60 1012.6
20260507133000 47 37 2.0 5.0 0.00 0.00 0.00 61 1012.6
20260507131500 46 27 4.0 9.0 0.00 0.00 0.00 61 1012.6
20260507130000 46 47 3.0 6.0 0.00 0.00 0.00 61 1012.6
20260507124500 45 40 4.0 9.0 0.00 0.00 0.00 63 1012.5
20260507123000 46 161 1.0 3.0 0.00 0.00 0.00 58 1012.2
20260507121500 42 178 1.0 3.0 0.00 0.00 0.00 62 1012.2
20260507120000 40 162 1.0 3.0 0.00 0.00 0.00 65 1012.3
20260507114500 40 175 2.0 5.0 0.00 0.00 0.00 66 1012.5
20260507113000 39 185 2.0 3.0 0.00 0.00 0.00 66 1012.5
20260507111500 39 188 3.0 5.0 0.00 0.00 0.00 65 1012.6
20260507110000 39 160 0.0 3.0 0.00 0.00 0.00 65 1012.6
20260507104500 39 176 2.0 6.0 0.00 0.00 0.00 64 1012.7
20260507101500 38 151 3.0 5.0 0.00 0.00 0.00 70 1013.0
20260507100000 37 156 1.0 2.0 0.00 0.00 0.00 74 1013.3
20260507093000 38 164 1.0 3.0 0.00 0.00 0.00 72 1013.4
20260507091501 39 162 1.0 5.0 0.00 0.00 0.00 69 1013.7
20260507084500 38 152 2.0 5.0 0.00 0.00 0.00 70 1014.0
20260507083000 37 108 1.0 2.0 0.00 0.00 0.00 72 1014.1
20260507080002 37 158 2.0 5.0 0.00 0.00 0.00 71 1014.4
20260507074500 37 114 0.0 2.0 0.00 0.00 0.00 71 1014.6
20260507073001 37 92 2.0 3.0 0.00 0.00 0.00 73 1014.8
20260507071500 36 355 1.0 2.0 0.00 0.00 0.00 74 1015.2
20260507070000 36 355 0.0 0.0 0.00 0.00 0.00 70 1015.3
20260507064501 37 355 0.0 1.0 0.00 0.00 0.00 68 1015.4
20260507063001 37 355 0.0 2.0 0.00 0.00 0.00 69 1015.5
20260507060000 37 355 0.0 1.0 0.00 0.00 0.00 70 1015.4
20260507054500 37 355 0.0 1.0 0.00 0.00 0.00 69 1015.6
20260507051500 37 355 0.0 1.0 0.00 0.00 0.00 70 1015.7
20260507050001 38 355 0.0 1.0 0.00 0.00 0.00 67 1015.7
20260507044500 39 355 0.0 1.0 0.00 0.00 0.00 65 1015.7
20260507043001 40 355 0.0 1.0 0.00 0.00 0.00 64 1015.6
20260507041500 39 355 0.0 1.0 0.00 0.00 0.00 65 1015.6
20260507040000 40 355 1.0 1.0 0.00 0.00 0.00 63 1015.6
20260507034501 42 355 0.0 1.0 0.00 0.00 0.00 59 1015.7
20260507033001 42 355 0.0 1.0 0.00 0.00 0.00 56 1015.6
20260507031501 43 355 0.0 2.0 0.00 0.00 0.00 55 1015.7
20260507030000 43 355 1.0 1.0 0.00 0.00 0.00 52 1015.7
20260507024500 44 355 0.0 2.0 0.00 0.00 0.00 52 1015.7
20260507023000 45 349 1.0 2.0 0.00 0.00 0.00 51 1015.7
20260507021501 46 349 1.0 2.0 0.00 0.00 0.00 48 1015.6
20260507020000 47 349 0.0 2.0 0.00 0.00 0.00 44 1015.5
20260507014501 47 323 1.0 3.0 0.00 0.00 0.00 43 1015.4
20260507013001 48 345 2.0 3.0 0.00 0.00 0.00 42 1015.3
20260507011500 49 313 2.0 8.0 0.00 0.00 0.00 40 1015.3
20260507010001 50 304 3.0 9.0 0.00 0.00 0.00 39 1015.3
20260507004501 51 320 5.0 12.0 0.00 0.00 0.00 38 1015.3
20260507003001 52 306 5.0 13.0 0.00 0.00 0.00 36 1015.2
20260507001501 52 313 5.0 16.0 0.00 0.00 0.00 37 1015.2
20260507000000 52 325 7.0 14.0 0.00 0.00 0.00 36 1015.2
20260506234501 52 305 7.0 20.0 0.00 0.00 0.00 36 1015.3
20260506233001 53 283 7.0 17.0 0.00 0.00 0.00 37 1015.6
20260506231500 53 297 5.0 16.0 0.00 0.00 0.00 37 1015.4
20260506230001 53 284 8.0 15.0 0.00 0.00 0.00 36 1015.6
20260506224501 53 292 13.0 20.0 0.00 0.00 0.00 36 1015.7
20260506223001 53 294 12.0 21.0 0.00 0.00 0.00 36 1015.7
20260506220001 52 314 8.0 22.0 0.00 0.00 0.00 38 1015.5
20260506214501 52 326 12.0 20.0 0.00 0.00 0.00 37 1015.6
20260506211501 52 319 13.0 20.0 0.00 0.00 0.00 38 1015.6
20260506210001 52 306 10.0 22.0 0.00 0.00 0.00 38 1015.9
20260506203001 52 297 9.0 20.0 0.00 0.00 0.00 39 1016.1
20260506201501 51 269 10.0 21.0 0.00 0.00 0.00 39 1016.2
20260506200000 50 302 12.0 20.0 0.00 0.00 0.00 40 1016.4
20260506194501 51 294 9.0 17.0 0.00 0.00 0.00 41 1016.5
20260506193001 50 310 11.0 20.0 0.00 0.00 0.00 40 1016.6
20260506191503 50 332 10.0 18.0 0.00 0.00 0.00 40 1016.6
20260506190002 50 300 9.0 18.0 0.00 0.00 0.00 41 1016.6
20260506184501 50 293 10.0 24.0 0.00 0.00 0.00 41 1016.5
20260506183001 49 293 11.0 20.0 0.00 0.00 0.00 41 1016.6
20260506181500 50 257 12.0 21.0 0.00 0.00 0.00 41 1016.6
20260506180001 49 286 9.0 18.0 0.00 0.00 0.00 43 1016.7